• In Österreich
  • Länderverzeichnis
  • Für 7 Tage
  • Wassertemperatur
  • Satellitenkarten
  • Wetterkarte
  • News
  • Widgets
  • user-avatar
    Anmelden

    Stündliche Wetter Kazanky

    Heute, 26 Mai, Samstag

    Zeit Temperatur Niederschläge Wind Luftdruck Luftfeuchtigkeit
    00:00 +18°C° 0 mm 4 m/S 742 mmHg 84%
    01:00 +18°C° 0 mm 4 m/S 742 mmHg 88%
    02:00 +17°C° 0 mm 4 m/S 742 mmHg 92%
    03:00 +17°C° 0 mm 4 m/S 742 mmHg 93%
    04:00 +16°C° 0 mm 5 m/S 742 mmHg 93%
    05:00 +17°C° 0 mm 5 m/S 742 mmHg 93%
    06:00 +19°C° 0 mm 5 m/S 743 mmHg 89%
    07:00 +20°C° 0 mm 5 m/S 743 mmHg 85%
    08:00 +21°C° 0 mm 5 m/S 743 mmHg 81%
    09:00 +21°C° 0 mm 6 m/S 744 mmHg 79%
    10:00 +22°C° 0 mm 6 m/S 744 mmHg 77%
    11:00 +22°C° 0 mm 6 m/S 744 mmHg 75%
    12:00 +22°C° 0 mm 7 m/S 744 mmHg 76%
    13:00 +22°C° 0 mm 7 m/S 745 mmHg 76%
    14:00 +21°C° 0 mm 8 m/S 745 mmHg 77%
    15:00 +21°C° 0 mm 8 m/S 745 mmHg 77%
    16:00 +20°C° 0 mm 8 m/S 745 mmHg 78%
    17:00 +18°C° 0 mm 8 m/S 745 mmHg 78%
    18:00 +18°C° 0 mm 8 m/S 745 mmHg 79%
    19:00 +17°C° 0 mm 8 m/S 746 mmHg 79%
    20:00 +17°C° 0 mm 8 m/S 746 mmHg 79%
    21:00 +16°C° 0 mm 8 m/S 746 mmHg 79%
    22:00 +16°C° 0 mm 8 m/S 746 mmHg 78%
    23:00 +15°C° 0 mm 8 m/S 746 mmHg 78%

    Morgen, 27 Mai, Sonntag

    Zeit Temperatur Niederschläge Wind Luftdruck Luftfeuchtigkeit
    00:00 +15°C° 0 mm 8 m/S 746 mmHg 75%
    01:00 +14°C° 0 mm 7 m/S 746 mmHg 72%
    02:00 +14°C° 0 mm 7 m/S 746 mmHg 69%
    03:00 +14°C° 0 mm 7 m/S 746 mmHg 68%
    04:00 +12°C° 0 mm 7 m/S 746 mmHg 67%
    05:00 +12°C° 0 mm 7 m/S 746 mmHg 65%
    06:00 +13°C° 0 mm 8 m/S 746 mmHg 62%
    07:00 +16°C° 0 mm 8 m/S 746 mmHg 58%
    08:00 +17°C° 0 mm 9 m/S 746 mmHg 55%
    09:00 +18°C° 0 mm 9 m/S 746 mmHg 54%
    10:00 +18°C° 0 mm 9 m/S 746 mmHg 54%
    11:00 +19°C° 0 mm 9 m/S 746 mmHg 54%
    12:00 +20°C° 0 mm 8 m/S 746 mmHg 54%
    13:00 +21°C° 0 mm 8 m/S 746 mmHg 54%
    14:00 +21°C° 0 mm 8 m/S 746 mmHg 54%
    15:00 +21°C° 0 mm 7 m/S 746 mmHg 57%
    16:00 +21°C° 0 mm 7 m/S 746 mmHg 60%
    17:00 +20°C° 0 mm 7 m/S 745 mmHg 62%
    18:00 +18°C° 0 mm 7 m/S 745 mmHg 67%
    19:00 +17°C° 0 mm 6 m/S 745 mmHg 72%
    20:00 +15°C° 0 mm 6 m/S 746 mmHg 76%
    21:00 +15°C° 0 mm 6 m/S 746 mmHg 78%
    22:00 +15°C° 0 mm 5 m/S 745 mmHg 79%
    23:00 +14°C° 0 mm 5 m/S 745 mmHg 81%

    übermorgen, 28 Mai, Montag

    Zeit Temperatur Niederschläge Wind Luftdruck Luftfeuchtigkeit
    00:00 +14°C° 0 mm 5 m/S 745 mmHg 82%
    01:00 +14°C° 0 mm 5 m/S 745 mmHg 83%
    02:00 +13°C° 0 mm 5 m/S 745 mmHg 84%
    03:00 +13°C° 0 mm 5 m/S 745 mmHg 83%
    04:00 +13°C° 0 mm 5 m/S 745 mmHg 83%
    05:00 +13°C° 0 mm 5 m/S 745 mmHg 82%
    06:00 +15°C° 0 mm 5 m/S 745 mmHg 75%
    07:00 +17°C° 0 mm 6 m/S 746 mmHg 69%
    08:00 +20°C° 0 mm 6 m/S 746 mmHg 62%
    09:00 +21°C° 0 mm 6 m/S 746 mmHg 60%
    10:00 +22°C° 0 mm 6 m/S 746 mmHg 58%
    11:00 +23°C° 0 mm 6 m/S 746 mmHg 56%
    12:00 +23°C° 0 mm 6 m/S 746 mmHg 57%
    13:00 +23°C° 0 mm 6 m/S 746 mmHg 57%
    14:00 +23°C° 0 mm 6 m/S 746 mmHg 58%
    15:00 +22°C° 0 mm 6 m/S 746 mmHg 60%
    16:00 +22°C° 0 mm 6 m/S 746 mmHg 62%
    17:00 +21°C° 0 mm 6 m/S 746 mmHg 64%
    18:00 +20°C° 0 mm 6 m/S 746 mmHg 68%
    19:00 +17°C° 0 mm 6 m/S 746 mmHg 72%
    20:00 +16°C° 0 mm 5 m/S 746 mmHg 76%
    21:00 +16°C° 0 mm 5 m/S 746 mmHg 77%
    22:00 +15°C° 0 mm 5 m/S 746 mmHg 77%
    23:00 +15°C° 0 mm 5 m/S 746 mmHg 77%

    29 Mai, Dienstag

    Zeit Temperatur Niederschläge Wind Luftdruck Luftfeuchtigkeit
    00:00 +15°C° 0 mm 5 m/S 746 mmHg 77%
    01:00 +15°C° 0 mm 5 m/S 746 mmHg 77%
    02:00 +15°C° 0 mm 5 m/S 745 mmHg 77%
    03:00 +15°C° 0 mm 6 m/S 745 mmHg 75%
    04:00 +15°C° 0 mm 6 m/S 745 mmHg 74%
    05:00 +15°C° 0 mm 6 m/S 745 mmHg 73%
    06:00 +17°C° 0 mm 7 m/S 745 mmHg 66%
    07:00 +18°C° 0 mm 8 m/S 745 mmHg 60%
    08:00 +21°C° 0 mm 9 m/S 745 mmHg 53%
    09:00 +22°C° 0 mm 9 m/S 745 mmHg 51%
    10:00 +23°C° 0 mm 9 m/S 745 mmHg 49%
    11:00 +24°C° 0 mm 9 m/S 746 mmHg 47%
    12:00 +24°C° 0 mm 9 m/S 745 mmHg 48%
    13:00 +24°C° 0 mm 9 m/S 745 mmHg 48%
    14:00 +24°C° 0 mm 9 m/S 745 mmHg 49%
    15:00 +23°C° 0 mm 9 m/S 745 mmHg 53%
    16:00 +22°C° 0 mm 9 m/S 745 mmHg 58%
    17:00 +21°C° 0 mm 9 m/S 745 mmHg 62%
    18:00 +19°C° 0 mm 9 m/S 745 mmHg 64%
    19:00 +18°C° 0 mm 8 m/S 745 mmHg 66%
    20:00 +16°C° 0 mm 8 m/S 745 mmHg 69%
    21:00 +16°C° 0 mm 8 m/S 745 mmHg 70%
    22:00 +16°C° 0 mm 8 m/S 744 mmHg 70%
    23:00 +15°C° 0 mm 8 m/S 744 mmHg 71%

    30 Mai, Mittwoch

    Zeit Temperatur Niederschläge Wind Luftdruck Luftfeuchtigkeit
    00:00 +15°C° 0 mm 8 m/S 744 mmHg 71%
    01:00 +15°C° 0 mm 8 m/S 743 mmHg 71%
    02:00 +15°C° 0 mm 8 m/S 743 mmHg 71%
    03:00 +15°C° 0 mm 8 m/S 743 mmHg 69%
    04:00 +15°C° 0 mm 9 m/S 743 mmHg 67%
    05:00 +13°C° 0 mm 9 m/S 742 mmHg 65%
    06:00 +16°C° 0 mm 9 m/S 742 mmHg 61%
    07:00 +17°C° 0 mm 9 m/S 743 mmHg 58%
    08:00 +19°C° 0 mm 9 m/S 743 mmHg 54%
    09:00 +21°C° 0,2 mm 9 m/S 743 mmHg 54%
    10:00 +22°C° 0,2 mm 9 m/S 743 mmHg 53%
    11:00 +23°C° 0,2 mm 8 m/S 743 mmHg 53%
    12:00 +23°C° 0,4 mm 8 m/S 743 mmHg 53%
    13:00 +23°C° 0,4 mm 8 m/S 743 mmHg 53%
    14:00 +23°C° 0,4 mm 8 m/S 743 mmHg 53%
    15:00 +23°C° 0,1 mm 8 m/S 743 mmHg 54%
    16:00 +22°C° 0,1 mm 8 m/S 743 mmHg 55%
    17:00 +22°C° 0,1 mm 7 m/S 743 mmHg 56%
    18:00 +20°C° 0,1 mm 7 m/S 743 mmHg 60%
    19:00 +18°C° 0,1 mm 7 m/S 743 mmHg 65%
    20:00 +17°C° 0,1 mm 6 m/S 743 mmHg 69%
    21:00 +16°C° 0 mm 6 m/S 743 mmHg 71%
    22:00 +16°C° 0 mm 6 m/S 743 mmHg 72%
    23:00 +15°C° 0 mm 6 m/S 742 mmHg 74%

    31 Mai, Donnerstag

    Zeit Temperatur Niederschläge Wind Luftdruck Luftfeuchtigkeit
    00:00 +15°C° 0 mm 6 m/S 742 mmHg 74%
    01:00 +15°C° 0 mm 6 m/S 742 mmHg 75%
    02:00 +15°C° 0 mm 6 m/S 742 mmHg 75%
    03:00 +15°C° 0 mm 6 m/S 742 mmHg 76%
    04:00 +15°C° 0 mm 6 m/S 742 mmHg 76%
    05:00 +15°C° 0 mm 6 m/S 742 mmHg 77%
    06:00 +16°C° 0 mm 7 m/S 742 mmHg 68%
    07:00 +18°C° 0 mm 7 m/S 742 mmHg 58%
    08:00 +21°C° 0 mm 8 m/S 742 mmHg 49%
    09:00 +22°C° 0 mm 8 m/S 742 mmHg 46%
    10:00 +23°C° 0 mm 7 m/S 742 mmHg 44%
    11:00 +24°C° 0 mm 7 m/S 742 mmHg 41%
    12:00 +24°C° 0 mm 7 m/S 742 mmHg 42%
    13:00 +24°C° 0 mm 7 m/S 742 mmHg 42%
    14:00 +26°C° 0 mm 7 m/S 742 mmHg 43%
    15:00 +24°C° 0 mm 7 m/S 742 mmHg 46%
    16:00 +24°C° 0 mm 7 m/S 742 mmHg 49%
    17:00 +23°C° 0 mm 6 m/S 742 mmHg 51%
    18:00 +21°C° 0 mm 6 m/S 742 mmHg 58%
    19:00 +20°C° 0 mm 5 m/S 742 mmHg 65%
    20:00 +18°C° 0 mm 4 m/S 742 mmHg 72%
    21:00 +17°C° 0 mm 4 m/S 742 mmHg 74%
    22:00 +17°C° 0 mm 4 m/S 742 mmHg 76%
    23:00 +17°C° 0 mm 4 m/S 742 mmHg 78%
    Mehr zeigen